Regional Weather Roundup
Issued by NWS

Home | Current Version | Previous Version | Graphics & Text | Print | Product List | Glossary Off
Versions: 1 2 3 4 5 6 7 8 9 10 11 12 13 14 15 16 17 18 19 20 21 22 23 24 25 26 27 28 29 30 31 32 33 34 35 36 37 38 39 40 41 42 43 44 45 46 47 48 49 50

000
ASUS43 KDTX 021310
RWRMI
MICHIGAN HOURLY REGIONAL WEATHER ROUNDUP
NATIONAL WEATHER SERVICE DETROIT/PONTIAC MI
900 AM EDT WED SEP 02 2015

NOTE: "FAIR" INDICATES FEW OR NO CLOUDS BELOW 12,000 FEET WITH NO
SIGNIFICANT WEATHER AND/OR OBSTRUCTION TO VISIBILITY.

MIZ047>049-052>055-059>063-066>070-074>076-081>083-021400-
SOUTHEAST LOWER MICHIGAN

CITY           SKY/WX    TMP DP  RH WIND       PRES   REMARKS
ADRIAN         PTSUNNY   70  68  93 W5        30.09S FOG
ALMA           SUNNY     73  72  95 SW6       30.05R FOG
ANN ARBOR      PTSUNNY   71  69  93 W8        30.08R THUNDER FOG
BAD AXE        SUNNY     73  71  94 SW6       30.04S FOG
DETROIT CITY   SUNNY     75  69  81 SW7       30.07R
DETROIT        MOSUNNY   73  68  84 S5        30.07R HAZE
FLINT          MOSUNNY   76  69  79 SW6       30.05S
GROSSE ILE     SUNNY     73  70  88 CALM      30.06S
HILLSDALE      MOSUNNY   71  71 100 W3        30.09S FOG
HOWELL         PTSUNNY   73  70  92 SW3       30.07S

CITY           SKY/WX    TMP DP  RH WIND       PRES   REMARKS
JACKSON        MOSUNNY   71  69  93 W3        30.08S FOG
LAMBERTVILLE   SUNNY     75  69  79 CALM      30.08F
LANSING        MOSUNNY   74  69  85 SW8       30.06S
LAPEER         NOT AVBL
MASON          PTSUNNY   71  67  89 CALM      30.07S FOG
MONROE         SUNNY     73  68  84 SW6       30.07S
MT. CLEMENS    MOSUNNY   77  71  81 SW3       30.04S HAZE
PONTIAC        MOSUNNY   74  70  87 SW5       30.06S
PORT HOPE        N/A     75  70  84 SW8       30.00S
PORT HURON     SUNNY     72  72 100 S6        30.05S FOG
TRI CITIES     SUNNY     75  70  84 SW7       30.04R HAZE
YPSILANTI      MOSUNNY   75  71  87 SW8       30.09R FOG
$$
MIZ043>046-050>051-056>058-064>065-071>073-077>080-021400-
SOUTHWEST LOWER MICHIGAN

CITY           SKY/WX    TMP DP  RH WIND       PRES   REMARKS
BATTLE CREEK   SUNNY     74  69  85 SW8       30.07S
BENTON HARBOR  HAZE      76  70  82 SW5       30.07R VSB 1
BIG RAPIDS     CLOUDY    73  72  97 CALM      30.04R FOG
COLDWATER      SUNNY     72  70  93 SW8       30.08F FOG
HOLLAND        SUNNY     77  70  79 SW10      30.05R
GRAND RAPIDS   PTSUNNY   75  70  84 SW9       30.06R
KALAMAZOO      SUNNY     73  69  87 SW5       30.08R
MARSHALL       MOSUNNY   71  68  90 CALM      30.07S
MUSKEGON       PTSUNNY   75  69  81 W7        30.03R
$$
MIZ016>042-021400-
NORTHERN LOWER MICHIGAN

CITY           SKY/WX    TMP DP  RH WIND       PRES   REMARKS
ALPENA         MOSUNNY   73  70  90 CALM      30.00R FOG
BEAVER ISLAND  PTSUNNY   70  68  93 W3        29.99R FOG
BELLAIRE       MOSUNNY   73  70  91 CALM      29.99S
CADILLAC       FOG       71  70  98 SW6       30.04R VSB<1/4
CHARLEVOIX     MOSUNNY   73  71  95 CALM      30.02S FOG
FRANKFORT      CLOUDY    73  71  93 CALM      30.00S FOG
GAYLORD        SUNNY     72  71  97 SW3       30.03R FOG
GRAYLING       MOSUNNY   70  68  93 CALM      30.03S FOG
HARBOR SPRINGS MOSUNNY   72  70  94 CALM      29.99S FOG
HOUGHTON LAKE  FOG       70  70 100 SW6       30.03S VSB 1/2
MANISTEE       MOSUNNY   70  66  88 CALM      30.02S
OSCODA         FOG       70  70  99 SW6       30.00S VSB 1/2
PELLSTON       CLOUDY    72  69  90 CALM      29.99S FOG
TRAVERSE CITY  MOSUNNY   76  70  82 SW5       29.98S
$$
MIZ007>008-015-021400-
EASTERN UPPER MICHIGAN

CITY           SKY/WX    TMP DP  RH WIND       PRES   REMARKS
KINROSS        CLOUDY    70  70 100 CALM      29.99S VSB 3/4
MACKINAC ISLAN FOG       68  67  97 CALM      29.99S VSB<1/4
NEWBERRY       FOG       66  66  99 N5        29.99S VSB<1/4
S. S. MARIE    CLOUDY    70  68  93 CALM      29.99R FOG
$$
MIZ004>006-011>014-085-021400-
CENTRAL UPPER MICHIGAN

CITY           SKY/WX    TMP DP  RH WIND       PRES   REMARKS
MANISTIQUE     PTSUNNY   66  65  97 N3        29.98S FOG
ESCANABA       CLOUDY    68  66  94 CALM      29.97R
MENOMINEE      MOSUNNY   72  68  88 CALM      29.97S
SAWYER-GWINN   SUNNY     68  66  94 CALM      30.00R FOG
$$
MIZ001>003-009>011-084-021400-
WESTERN UPPER MICHIGAN

CITY           SKY/WX    TMP DP  RH WIND       PRES   REMARKS
IRON MOUNTAIN  CLOUDY    70  67  90 CALM      29.98S FOG
HOUGHTON       FOG       64  63  96 CALM      29.98S VSB 1/4
IRONWOOD       CLOUDY    68  68 100 SW8       29.97R
$$

ABBREVIATIONS USED IN REMARKS
   TC - TEMPERATURE IN CELSIUS
  WCI - WIND CHILL INDEX
   HX - HEAT INDEX
  VSB - VISIBILITY



USA.gov is the U.S. government's official web portal to all federal, state and local government web resources and services.